Location: River Kinyeti
(4.4474°N, 32.5247°E)
Time: 23:27:54
(UTC+00:00)

Daily predictions for brighter satellites

Satellite Brightness Start Highest point End
(mag) Time Altitude Azimuth Time Altitude Azimuth Time Altitude Azimuth
YAOGAN 6 4.0 15:48:53 10° SE 15:51:23 18° E 15:53:52 10° NNE
GOES 2 Rocket 4.0 15:46:14 10° SW 15:52:18 50° SSE 15:56:59 10° ENE
Atlas Centaur 2 3.9 15:46:15 10° SSW 15:53:52 36° SSE 16:00:45 10° E
Centaur AC-116 2.7 15:52:59 10° SW 15:56:25 41° SSE 15:58:25 10° E
ARIANE 5 DEB (SYLDA) 3.8 15:56:03 10° SW 15:57:54 18° S 15:59:29 10° SE
Skynet4D Del rocket 3.7 15:53:41 10° WNW 15:59:46 89° SW 16:05:15 10° ESE
SMAP 4.1 16:00:32 10° S 16:05:02 50° WSW 16:09:31 10° NNW
Cosmos 1862 3.4 16:03:32 10° N 16:07:25 52° E 16:11:20 10° SSE
Okean-O 2.6 16:03:54 10° SSE 16:08:20 88° ENE 16:12:45 10° NNW
Cosmos 1606 2.6 16:05:10 10° S 16:08:57 63° E 16:12:41 10° NNE
COSMOS 2455 3.1 16:04:14 10° S 16:10:00 48° ESE 16:15:44 10° NE
Cosmos 2360 Rocket 3.4 16:08:15 10° SSE 16:12:21 21° ESE 16:15:20 14° ENE
Cosmos 1782 4.1 16:09:37 10° SE 16:12:43 21° E 16:15:02 14° NE
Cosmos 1513 Rocket 4.5 16:07:21 10° N 16:13:39 81° E 16:19:52 10° S
SL-16 R/B 2.2 16:08:24 10° S 16:14:01 71° ESE 16:19:39 10° NNE
Cosmos 2034 Rocket 4.0 16:14:43 10° N 16:21:01 63° E 16:27:17 10° SSE
Cosmos 2322 Rocket 2.1 16:17:14 10° S 16:22:48 72° ESE 16:28:22 10° NNE
Cosmos 1400 Rocket 2.7 16:23:02 10° S 16:27:03 68° E 16:31:05 10° NNE
ASTRO E2 3.6 16:24:58 10° WSW 16:28:45 42° NNW 16:31:15 19° NNE
Cosmos 2219 4.1 16:23:29 10° NNW 16:28:54 51° WSW 16:34:21 10° S
NOSS 2-2 (D) 3.3 16:25:44 10° SSW 16:30:17 84° ESE 16:33:04 18° NNE
ARIANE 5 R/B 4.1 16:26:28 10° WSW 16:30:55 21° SSW 16:32:57 10° SE
Cosmos 2228 Rocket 3.6 16:28:47 10° SSW 16:33:08 62° W 16:37:30 10° N
ATLAS 5 CENTAUR R/B 3.7 16:28:53 10° NNW 16:33:17 24° NNE 16:38:16 18° NE
Ariane H10+ 3.5 16:29:55 10° W 16:34:21 75° S 16:41:12 18° E
Ariane H10-3 1.8 16:32:45 10° W 16:34:55 64° N 16:36:22 30° ENE
ISS -0.9 16:36:18 10° WNW 16:37:40 12° NW 16:39:02 10° NNW
SeaSat 1 2.6 16:37:23 10° SE 16:42:07 49° ENE 16:46:51 10° N
NOSS 3-4 (A) 4.2 16:37:35 10° S 16:42:47 29° ESE 16:44:03 26° E
FengYun 1-2 T 4.3 16:37:15 10° S 16:42:50 79° WSW 16:48:21 10° NNW
NOSS 3-4 (C) 4.2 16:37:42 10° S 16:42:53 28° ESE 16:44:07 26° E
Envisat 4.2 16:40:03 10° S 16:44:53 45° WSW 16:49:42 10° NNW
Cosmos 2297 Rocket 2.8 16:39:52 10° NNW 16:45:24 60° WSW 16:50:57 10° S
Cosmos 2227 Rocket 2.6 16:40:05 10° NNW 16:45:39 66° WSW 16:51:15 10° S
Cosmos 2084 4.4 16:43:24 10° NW 16:47:23 48° WSW 16:51:22 10° S
CZ-4 R/B 2.0 16:45:05 10° S 16:49:16 62° WSW 16:53:23 10° NNW
Cosmos 1707 Rocket 3.6 16:51:09 10° S 16:55:17 50° E 16:55:17 50° E
Cosmos 2333 Rocket 4.2 16:54:35 10° SE 16:55:16 12° SE 16:55:16 12° SE
Cosmos 1939 Rocket 2.9 16:54:53 10° SSE 16:58:33 57° ESE 16:58:33 57° ESE
Cosmos 2219 Rocket 4.2 17:00:07 10° SE 17:00:49 12° SE 17:00:49 12° SE
ARIANE 5 DEB (SYLDA) 3.5 17:05:11 10° WSW 17:10:58 46° S 17:12:40 33° SE
Meteor 2-6 Rocket 4.1 17:08:18 10° S 17:14:05 81° E 17:15:32 52° NNE
Cosmos 1933 Rocket 4.0 17:10:36 13° NNW 17:14:26 59° W 17:18:45 10° S
Cosmos 2082 4.2 17:09:34 10° NNW 17:15:04 60° WSW 17:20:38 10° S
YAOGAN 1 4.1 17:12:31 10° SSW 17:16:30 36° WSW 17:20:27 10° NW
ATLAS 5 CENTAUR R/B 3.1 17:09:56 10° NNW 17:16:41 64° WSW 17:23:46 10° SSE
ADEOS Rocket 2.9 17:16:25 29° N 17:19:24 72° WNW 17:24:51 10° SSW
ATLAS 2AS CENTAUR R/B 3.0 17:12:43 10° SSW 17:20:04 79° WNW 17:23:48 35° NNE
GPS 2-17 Rocket1 3.7 17:16:57 10° W 17:21:15 47° SSW 17:21:20 47° SSW
Cosmos 1315 Rocket 4.0 17:23:02 10° SSW 17:25:56 39° SW 17:25:56 39° SW
Ariane Rocket 4.1 17:22:43 10° SSE 17:25:25 32° SSE 17:25:25 32° SSE
Ariane H10 3.4 17:24:41 10° W 17:27:10 31° WNW 17:27:10 31° WNW
DNEPR-1 R/B 4.4 17:24:30 10° NNW 17:30:45 67° WSW 17:34:21 20° S
Atlas Centaur 2 2.7 17:35:38 10° WSW 17:43:46 73° NNW 17:43:54 72° NNW
COSMOS 2428 4.4 17:43:51 10° S 17:45:50 22° S 17:45:50 22° S
Cosmos 2360 Rocket 3.9 17:51:24 10° SW 17:56:02 27° WNW 17:57:11 25° NW
ARIANE 5 R/B 3.9 18:07:11 10° WSW 18:49:04 10° E 18:09:50 51° WSW
ARIANE 5 R/B 3.9 18:07:10 10° WSW 18:49:04 10° E 18:09:50 51° WSW
ARIANE 5 R/B 3.9 18:07:10 10° WSW 18:49:05 10° E 18:09:50 51° WSW
ARIANE 5 R/B 3.9 18:07:10 10° WSW 18:49:03 10° E 18:09:49 51° WSW
BLOCK DM-SL R/B 3.7 18:04:35 10° W 18:23:01 52° SW 18:23:01 52° SW
